TimeMDT,TemperatureF,Dew PointF,Humidity,Sea Level PressureIn,VisibilityMPH,Wind Direction,Wind SpeedMPH,Gust SpeedMPH,PrecipitationIn,Events,Conditions,WindDirDegrees,DateUTC
12:46 AM,19.4,15.8,86,30.04,9.0,NNW,17.3,-,0.00,Snow,Light Snow,340,2013-03-10 07:46:00
12:53 AM,19.0,16.0,88,30.14,-9999.0,NNW,17.3,-,0.00,,Overcast,340,2013-03-10 07:53:00
3:37 AM,19.4,15.8,86,30.04,5.0,NNW,16.1,-,0.00,Snow,Light Snow,330,2013-03-10 09:37:00
3:53 AM,19.0,16.0,88,30.12,9.0,NNW,15.0,-,0.00,Snow,Light Snow,330,2013-03-10 09:53:00
4:23 AM,17.6,15.8,93,30.04,9.0,NW,18.4,-,0.00,Snow,Light Snow,320,2013-03-10 10:23:00
4:53 AM,19.0,15.1,85,30.14,9.0,NW,19.6,-,0.00,,Overcast,320,2013-03-10 10:53:00
6:26 AM,17.6,12.2,79,30.08,10.0,NW,9.2,-,N/A,,Mostly Cloudy,320,2013-03-10 12:26:00
6:53 AM,15.1,10.9,84,30.22,10.0,NW,12.7,-,N/A,,Scattered Clouds,320,2013-03-10 12:53:00
7:09 AM,15.8,10.4,79,30.08,10.0,NW,10.4,-,N/A,,Mostly Cloudy,320,2013-03-10 13:09:00
7:42 AM,15.8,10.4,79,30.09,10.0,NNW,8.1,-,N/A,,Scattered Clouds,340,2013-03-10 13:42:00
7:53 AM,15.1,10.0,80,30.23,10.0,NNW,5.8,-,N/A,,Clear,340,2013-03-10 13:53:00
8:53 AM,19.9,12.0,71,30.24,10.0,NW,13.8,-,N/A,,Clear,320,2013-03-10 14:53:00
9:53 AM,24.1,12.0,60,30.22,10.0,NW,21.9,31.1,N/A,,Clear,320,2013-03-10 15:53:00
10:53 AM,25.0,12.9,60,30.22,10.0,NW,19.6,27.6,N/A,,Clear,320,2013-03-10 16:53:00
11:53 AM,28.0,12.9,53,30.18,10.0,NNW,17.3,27.6,N/A,,Clear,340,2013-03-10 17:53:00
12:53 PM,28.9,14.0,54,30.16,10.0,NNW,26.5,38.0,N/A,,Clear,330,2013-03-10 18:53:00
1:53 PM,28.9,16.0,58,30.16,10.0,NW,21.9,-,N/A,,Clear,320,2013-03-10 19:53:00
2:53 PM,33.1,18.0,54,30.12,10.0,NW,27.6,32.2,N/A,,Clear,320,2013-03-10 20:53:00
3:53 PM,35.1,19.0,52,30.11,10.0,NNW,23.0,-,N/A,,Clear,330,2013-03-10 21:53:00
4:53 PM,36.0,19.0,50,30.09,-9999.0,NW,17.3,-,N/A,,Clear,320,2013-03-10 22:53:00
5:53 PM,36.0,19.0,50,30.09,10.0,NW,17.3,-,N/A,,Clear,320,2013-03-10 23:53:00
6:53 PM,33.1,19.0,56,30.13,10.0,WNW,13.8,-,N/A,,Clear,300,2013-03-11 00:53:00
7:53 PM,27.0,17.1,66,30.16,10.0,WSW,9.2,-,N/A,,Clear,250,2013-03-11 01:53:00
8:53 PM,23.0,15.1,72,30.15,10.0,WSW,8.1,-,N/A,,Clear,240,2013-03-11 02:53:00
9:53 PM,23.0,15.1,72,30.13,10.0,WSW,9.2,-,N/A,,Clear,250,2013-03-11 03:53:00
10:53 PM,24.1,15.1,69,30.10,10.0,WSW,9.2,-,N/A,,Clear,240,2013-03-11 04:53:00
11:53 PM,28.0,17.1,63,30.06,10.0,WSW,15.0,-,N/A,,Clear,240,2013-03-11 05:53:00
12:53 AM,30.9,17.1,57,30.02,10.0,WSW,16.1,-,N/A,,Mostly Cloudy,240,2013-03-11 06:53:00